Location: Haliburton Scout Reserve
(45.0900°N, 78.3200°W)
Time: 14:18:15
(UTC-04:00)

Envisat - Visible Passes

Search period start: 24 March 2023 00:00
Search period end: 03 April 2023 00:00
Orbit: 763 x 765 km, 98.2° (Epoch: 24 March)

Date Brightness Start Highest point End Pass type
(mag) Time Alt. Az. Time Alt. Az. Time Alt. Az.
24 Mar 4.6 04:32:27 10° NNE 04:36:59 32° E 04:41:08 12° SSE visible
24 Mar 3.7 06:11:25 10° N 06:15:58 34° WNW 06:20:31 10° SW visible
25 Mar 5.6 03:56:40 10° NE 03:59:31 15° E 04:02:22 10° ESE visible
25 Mar 2.9 05:33:59 10° N 05:39:03 72° WNW 05:43:57 11° SSW visible
26 Mar 3.7 04:56:57 10° NNE 05:01:56 53° E 05:06:33 12° S visible
26 Mar 4.3 06:36:44 10° NNW 06:40:34 22° WNW 06:44:22 10° WSW visible
27 Mar 5.0 04:20:27 10° NE 04:24:37 25° E 04:28:45 10° SSE visible
27 Mar 3.4 05:58:58 10° N 06:03:46 43° WNW 06:08:32 10° SW visible
28 Mar 5.8 03:45:28 10° ENE 03:47:04 11° E 03:48:40 10° ESE visible
28 Mar 3.0 05:21:40 10° NNE 05:26:47 89° ESE 05:31:51 10° SSW visible
29 Mar 4.1 04:44:46 10° NNE 04:49:35 41° E 04:54:22 10° SSE visible
29 Mar 4.0 06:24:09 10° N 06:28:23 27° WNW 06:32:35 10° WSW visible
30 Mar 5.3 04:08:31 10° NE 04:12:12 20° E 04:15:50 10° SE visible
30 Mar 3.1 05:46:33 10° N 05:51:31 55° WNW 05:56:27 10° SSW visible
31 Mar 3.2 05:09:22 10° NNE 05:14:27 71° ESE 05:19:30 10° S visible
01 Apr 4.6 04:32:37 10° NNE 04:37:11 32° E 04:41:43 10° SSE visible
01 Apr 3.7 06:11:37 10° N 06:16:09 34° WNW 06:20:41 10° SW visible
02 Apr 5.6 03:56:46 10° NE 03:59:43 15° E 04:02:39 10° SE visible
02 Apr 3.0 05:34:09 10° N 05:39:14 71° WNW 05:44:16 10° SSW visible
